FALCON 9 DEB (45241 NORAD) Tracking and Keplerian Element Data

This shows tracking and keplerian element data for the satellite.

Feedback or suggestion? Click here.




ElementValue
Catalog45241
NameFALCON 9 DEB
Epoch Orbit576
Epoch Day82.51557401
Epoch Year2020
RAAN94.2286
Inclination52.9917
Eccentricity0.0028058
Argument of Perigee158.7965
Mean Anonmoly201.4247
Mean Motion16.32025615
Decay Rate0.03179501
L11 45241U 20012BR 20082.51557401 .03179501 12060-4 48376-3 0 9991
L22 45241 52.9917 94.2286 0028058 158.7965 201.4247 16.32025615 5765

Live tracking and technical data element details for FALCON 9 DEB (NORAD 45241). FALCON 9 DEB can be tracked NOW for your location showing map with azimuth and elevation plus other details from your city location.

Track the satellite on the map from your city or location and see movement details for azimuth, elevation, latitude, longitude, range, height, and movement on the map or in text.







IsCatalogInMostPopularTable: catalog: 45241, numindb: 28
Update: records affected: 1



GetName: 45241 FALCON 9 DEB

Hit Count: updated at: Thu, 09 Jul 2020 01:08:43 GMT